GFSNE_prec_kuchsnow_216.txt.gz
Snowfall_Accumulation
0.0 0.0 0.0 0.0 0.0 0.0 0.1 0.1 2.1 3.2 0.1 0.0 0.0 0.0 0.0 0.0 0.0 0.0 0.0 0.0 0.0 0.0 0.0 0.0 0.0 0.0 0.0 0.0 0.0 0.0 0.0 0.0 0.0 0.0 0.0 0.0 0.0 0.0
0.0 0.0 0.0 0.0 0.0 0.0 0.1 0.0 0.2 0.8 1.7 0.0 0.0 0.0 0.0 0.0 0.0 0.0 0.0 0.0 0.0 0.0 0.0 0.0 0.0 0.0 0.0 0.0 0.0 0.0 0.0 0.0 0.0 0.0 0.0 0.0 0.0 0.0
0.0 0.0 0.0 0.0 0.0 0.1 0.0 0.0 0.1 0.3 1.1 0.0 0.0 0.0 0.0 0.0 0.0 0.0 0.0 0.0 0.0 0.0 0.0 0.0 0.0 0.0 0.0 0.0 0.0 0.0 0.0 0.0 0.0 0.0 0.0 0.0 0.0 0.0
0.1 0.0 0.0 0.0 0.0 0.0 0.0 0.1 0.3 0.1 0.4 0.4 0.0 0.0 0.0 0.0 0.0 0.0 0.0 0.0 0.0 0.0 0.0 0.0 0.0 0.0 0.0 0.0 0.0 0.0 0.0 0.0 0.0 0.0 0.0 0.0 0.0 0.0
0.4 0.3 0.1 0.2 0.2 0.2 0.3 0.4 0.2 0.1 0.1 0.3 0.2 0.0 0.0 0.0 0.0 0.0 0.0 0.0 0.0 0.0 0.0 0.0 0.0 0.0 0.0 0.0 0.0 0.0 0.0 0.0 0.0 0.0 0.0 0.0 0.0 0.0
1.6 1.3 0.9 0.7 0.7 1.5 0.3 0.4 0.2 0.3 0.3 0.2 0.1 0.1 0.0 0.0 0.0 0.0 0.0 0.0 0.0 0.0 0.0 0.0 0.0 0.0 0.0 0.0 0.0 0.0 0.0 0.0 0.0 0.0 0.0 0.0 0.0 0.0
3.9 2.9 3.0 2.8 1.5 2.1 2.9 2.3 0.8 1.1 1.3 0.8 1.6 1.2 0.8 0.7 0.4 0.1 0.4 0.1 0.0 0.0 0.0 0.0 0.0 0.0 0.0 0.0 0.0 0.0 0.0 0.0 0.0 0.0 0.0 0.0 0.0 0.0
4.1 4.7 3.6 3.6 2.5 2.9 2.4 2.6 3.2 2.6 6.3 5.4 3.6 2.2 1.1 1.9 1.8 1.9 1.5 4.1 3.4 0.0 0.1 0.6 0.0 0.0 0.0 0.0 0.0 0.0 0.0 0.1 0.2 0.2 0.2 0.2 0.0 0.0
5.3 4.3 4.0 4.6 4.1 3.2 3.4 3.3 2.8 3.1 4.7 7.9 10.2 5.9 5.0 2.9 3.2 5.6 2.1 2.3 2.1 0.0 1.1 1.4 0.1 0.3 0.1 0.0 0.1 0.1 0.0 0.0 0.0 0.0 0.0 0.4 0.6 0.6
5.8 4.9 4.2 4.3 4.5 4.6 6.0 7.1 8.0 7.8 7.3 7.6 6.2 5.3 2.3 2.2 4.4 4.5 3.8 2.6 1.3 0.4 0.5 5.4 1.8 0.4 0.4 0.1 0.0 0.0 0.1 0.2 0.3 0.3 0.3 0.1 0.1 0.5
1.8 3.7 4.2 3.9 6.5 6.7 10.4 11.7 9.2 6.0 6.4 5.4 5.8 4.1 4.6 3.6 3.4 8.4 6.2 9.0 5.6 1.4 0.5 3.9 1.1 2.1 3.0 4.0 3.3 0.3 0.1 0.0 0.2 0.1 1.1 0.9 0.7 0.5
0.9 1.8 4.1 5.5 5.7 5.7 8.8 9.7 11.4 8.3 7.5 5.9 5.7 4.9 4.2 4.0 3.6 5.6 10.4 14.0 8.3 8.2 1.4 4.4 1.4 3.5 9.2 4.1 4.4 4.9 3.4 2.6 0.4 1.0 0.7 0.9 0.6 1.7
4.2 4.0 2.9 4.5 5.9 4.0 4.3 6.8 9.0 5.3 5.3 6.6 6.5 7.6 6.9 5.8 5.5 5.6 6.4 10.8 17.6 11.4 2.5 6.3 5.5 2.4 8.2 4.8 4.4 5.2 6.5 9.6 5.9 4.6 2.8 3.2 1.4 2.7
8.9 7.1 6.8 5.9 4.5 4.1 3.6 6.0 5.1 4.3 6.4 8.0 8.1 8.2 10.8 10.7 7.5 8.2 6.8 7.0 6.6 9.2 4.2 10.4 18.4 5.4 9.6 10.6 6.0 5.1 9.0 10.3 11.9 9.3 7.7 6.9 5.3 4.3
7.6 7.4 6.6 5.7 4.5 5.1 4.5 5.0 5.6 7.9 8.3 8.3 7.1 5.4 5.9 6.5 6.4 7.2 6.7 6.7 6.0 5.9 8.4 7.9 9.3 8.1 12.4 13.1 5.1 5.3 12.4 13.7 10.0 9.8 11.3 11.6 11.1 8.8
8.3 7.1 7.7 6.9 6.3 6.6 7.2 6.5 7.5 7.6 7.4 7.7 6.0 3.9 3.4 4.7 5.9 6.7 10.5 9.2 13.9 12.8 8.9 10.8 14.7 13.1 17.2 11.3 8.1 9.5 7.3 11.9 9.6 10.2 10.9 11.3 10.1 7.5
10.2 11.2 10.4 7.4 6.4 4.2 3.2 2.6 2.6 2.7 4.5 4.4 4.0 3.0 3.2 3.6 6.2 6.1 8.0 8.7 14.9 14.1 14.0 12.3 12.9 15.7 11.8 10.6 12.7 7.1 7.3 7.5 7.3 8.8 11.5 11.5 9.9 10.3
9.2 7.6 6.2 5.0 4.6 4.4 4.7 4.5 2.5 2.0 2.3 2.9 3.3 2.9 4.6 5.7 6.4 5.5 6.1 12.1 13.4 12.9 15.5 13.9 15.3 19.0 16.7 12.4 6.3 7.4 11.4 10.3 7.9 6.2 7.8 12.3 10.3 8.4
9.1 7.5 7.1 7.5 5.7 5.8 4.5 4.4 4.4 3.7 3.0 3.9 3.0 5.0 4.3 4.3 6.2 6.0 7.1 9.5 11.8 9.0 11.2 14.0 19.2 21.5 27.2 22.9 9.6 3.8 10.4 7.2 7.1 7.8 8.3 9.7 13.5 9.6
9.8 10.1 9.6 7.7 6.7 4.9 4.8 4.9 4.0 4.0 3.8 3.1 3.8 3.1 4.6 5.3 4.1 6.7 7.2 10.5 10.4 9.7 8.1 8.7 14.5 17.4 26.7 26.3 22.6 12.1 8.5 11.4 10.3 10.6 10.4 9.4 11.2 10.6
11.9 10.5 11.7 10.9 9.1 8.4 7.7 6.8 7.5 7.4 7.1 5.5 5.4 6.0 6.2 6.3 6.2 3.9 6.0 6.9 9.0 10.2 10.3 10.4 11.3 14.9 17.1 17.8 24.2 19.9 17.9 11.4 12.3 14.8 13.6 16.8 16.1 11.1
21.6 19.5 17.8 17.7 16.8 15.7 14.3 12.7 10.8 10.3 9.7 7.7 7.3 7.5 8.4 7.8 8.0 8.4 7.8 11.9 11.6 11.3 12.2 10.5 10.2 12.0 15.8 19.6 21.6 17.7 19.7 19.1 12.6 13.2 13.1 12.7 19.5 22.0
22.7 21.3 19.5 17.4 16.0 15.9 15.3 15.3 13.9 13.8 12.6 11.3 10.8 9.7 9.8 11.0 9.4 9.8 9.3 8.2 9.5 9.8 9.5 12.9 12.1 12.2 16.0 17.1 19.8 21.9 19.7 19.6 20.0 16.0 18.5 7.6 6.7 6.2

GFSNE_prec_kuchsnow_219.txt.gz
Snowfall_Accumulation
0.0 0.0 0.0 0.0 0.0 0.0 0.1 0.1 2.1 3.2 0.1 0.0 0.0 0.0 0.0 0.0 0.0 0.0 0.0 0.0 0.0 0.0 0.0 0.0 0.0 0.0 0.0 0.0 0.0 0.0 0.0 0.0 0.0 0.0 0.0 0.0 0.0 0.0
0.0 0.0 0.0 0.0 0.0 0.0 0.1 0.0 0.2 0.8 1.7 0.0 0.0 0.0 0.0 0.0 0.0 0.0 0.0 0.0 0.0 0.0 0.0 0.0 0.0 0.0 0.0 0.0 0.0 0.0 0.0 0.0 0.0 0.0 0.0 0.0 0.0 0.0
0.0 0.0 0.0 0.0 0.0 0.1 0.0 0.0 0.1 0.3 1.1 0.0 0.0 0.0 0.0 0.0 0.0 0.0 0.0 0.0 0.0 0.0 0.0 0.0 0.0 0.0 0.0 0.0 0.0 0.0 0.0 0.0 0.0 0.0 0.0 0.0 0.0 0.0
0.1 0.0 0.0 0.0 0.0 0.0 0.0 0.1 0.3 0.1 0.4 0.4 0.0 0.0 0.0 0.0 0.0 0.0 0.0 0.0 0.0 0.0 0.0 0.0 0.0 0.0 0.0 0.0 0.0 0.0 0.0 0.0 0.0 0.0 0.0 0.0 0.0 0.0
0.4 0.3 0.1 0.2 0.2 0.2 0.3 0.4 0.2 0.1 0.1 0.3 0.2 0.0 0.0 0.0 0.0 0.0 0.0 0.0 0.0 0.0 0.0 0.0 0.0 0.0 0.0 0.0 0.0 0.0 0.0 0.0 0.0 0.0 0.0 0.0 0.0 0.0
1.6 1.3 0.9 0.7 0.7 1.5 0.3 0.4 0.2 0.3 0.3 0.2 0.1 0.1 0.0 0.0 0.0 0.0 0.0 0.0 0.0 0.0 0.0 0.0 0.0 0.0 0.0 0.0 0.0 0.0 0.0 0.0 0.0 0.0 0.0 0.0 0.0 0.0
3.9 2.9 3.0 2.8 1.5 2.1 2.9 2.3 0.8 1.1 1.3 0.8 1.6 1.2 0.8 0.7 0.4 0.1 0.4 0.6 0.5 0.2 0.5 0.3 0.2 0.2 0.1 0.0 0.0 0.0 0.0 0.0 0.0 0.0 0.0 0.0 0.0 0.0
4.1 4.7 3.6 3.6 2.5 2.9 2.4 2.6 3.2 2.6 6.3 5.4 3.6 2.8 1.1 1.9 1.8 2.6 2.5 5.7 5.3 0.5 0.8 1.4 0.4 0.2 0.0 0.0 0.0 0.0 0.0 0.1 0.2 0.2 0.2 0.2 0.0 0.0
5.3 4.3 4.0 4.6 4.1 3.2 3.4 3.3 2.8 3.1 4.7 7.9 11.4 6.6 6.2 4.0 4.3 7.0 3.4 3.4 3.0 0.5 1.7 2.0 0.2 0.3 0.1 0.0 0.1 0.1 0.0 0.0 0.0 0.0 0.0 0.4 0.6 0.6
5.8 4.9 4.2 4.3 4.5 4.6 6.0 8.5 9.4 7.8 7.3 7.6 6.2 6.5 3.0 3.1 4.4 4.5 4.4 3.3 2.0 0.7 0.8 5.7 1.8 0.4 0.4 0.1 0.0 0.0 0.1 0.2 0.3 0.3 0.3 0.1 0.1 0.5
1.8 3.7 4.2 3.9 6.5 6.7 11.8 13.3 11.0 8.0 7.6 5.4 5.8 4.8 5.4 4.3 3.9 9.1 7.3 9.7 6.0 1.5 0.5 3.9 1.1 2.1 3.0 4.0 3.3 0.3 0.1 0.0 0.2 0.1 1.1 0.9 0.7 0.5
0.9 1.8 4.1 5.5 5.7 6.7 10.0 10.8 12.7 9.8 8.7 7.1 6.8 5.7 4.8 4.0 3.6 5.6 10.5 14.2 8.4 8.4 1.4 4.4 1.4 3.5 9.2 4.1 4.4 4.9 3.4 2.6 0.4 1.0 0.7 0.9 0.6 1.7
4.2 5.5 4.1 4.5 7.0 4.9 5.0 7.5 9.7 6.1 6.1 7.3 7.1 8.2 7.5 6.2 5.9 5.8 6.4 10.9 17.6 11.4 2.5 6.3 5.5 2.4 8.2 4.8 4.4 5.2 6.5 9.6 5.9 4.6 2.8 3.2 1.4 2.7
10.0 8.7 8.5 7.0 5.3 4.6 3.9 6.4 5.4 4.6 6.8 8.4 8.6 8.8 11.3 11.1 7.8 8.3 6.9 7.1 6.6 9.2 4.2 10.4 18.4 5.4 9.6 10.6 6.0 5.1 9.0 10.3 11.9 9.3 7.7 6.9 5.3 4.3
8.4 9.3 8.3 6.6 5.2 5.6 4.7 5.2 5.6 7.9 8.4 8.4 7.3 5.6 6.1 6.6 6.5 7.2 6.7 6.7 6.0 5.9 8.4 7.9 9.3 8.1 12.4 13.1 5.1 5.3 12.4 13.7 10.0 9.8 11.3 11.6 11.1 8.8
8.3 8.8 9.2 7.7 6.6 6.9 7.4 6.5 7.5 7.6 7.4 7.7 6.0 3.9 3.4 4.7 5.9 6.7 10.5 9.2 13.9 12.8 8.9 10.8 14.7 13.1 17.2 11.3 8.1 9.5 7.3 11.9 9.6 10.2 10.9 11.3 10.1 7.5
11.3 12.4 11.6 7.9 6.8 4.4 3.2 2.6 2.6 2.7 4.5 4.4 4.0 3.0 3.2 3.6 6.2 6.1 8.0 8.7 14.9 14.1 14.0 12.3 12.9 15.7 11.8 10.6 12.7 7.1 7.3 7.5 7.3 8.8 11.5 11.5 9.9 10.3
10.5 8.7 7.1 5.9 5.5 5.1 4.9 4.6 2.5 2.0 2.3 2.9 3.3 2.9 4.6 5.7 6.4 5.5 6.1 12.1 13.4 12.9 15.5 14.0 15.4 19.1 16.8 12.4 6.3 7.4 11.4 10.3 7.9 6.2 7.8 12.3 10.3 8.4
10.2 8.5 8.0 8.3 6.3 6.0 4.6 4.4 4.4 3.7 3.0 3.9 3.0 5.0 4.3 4.3 6.2 6.0 7.1 9.5 11.8 9.0 11.2 14.0 19.3 21.5 27.3 22.9 9.6 3.8 10.4 7.2 7.1 7.8 8.3 9.7 13.5 9.6
10.3 10.7 10.3 8.2 7.0 5.0 4.8 4.9 4.0 4.0 3.8 3.1 3.8 3.1 4.6 5.3 4.1 6.7 7.2 10.5 10.4 9.7 8.1 8.7 14.5 17.4 26.7 26.4 22.6 12.1 8.5 11.4 10.3 10.6 10.4 9.4 11.2 10.6
12.3 10.9 12.1 11.2 9.1 8.4 7.7 6.8 7.5 7.4 7.1 5.5 5.4 6.0 6.2 6.3 6.2 3.9 6.0 6.9 9.0 10.2 10.3 10.4 11.3 14.9 17.1 17.8 24.2 19.9 17.9 11.4 12.3 14.8 13.6 16.8 16.1 11.2
22.1 19.7 18.0 17.9 16.9 15.7 14.3 12.7 10.8 10.3 9.7 7.7 7.3 7.5 8.4 7.8 8.1 8.4 7.8 12.0 11.6 11.3 12.2 10.5 10.2 12.0 15.8 19.6 21.6 17.7 19.7 19.1 12.6 13.2 13.1 12.7 19.6 22.1
23.0 21.6 19.7 17.6 16.1 15.9 15.3 15.3 13.9 13.8 12.6 11.3 10.8 9.8 9.8 11.0 9.4 9.8 9.4 8.3 9.5 9.8 9.5 12.9 12.1 12.2 16.0 17.1 19.8 21.9 19.7 19.6 20.0 16.1 18.5 7.6 6.7 6.2

GFSNE_prec_kuchsnow_225.txt.gz
Snowfall_Accumulation
0.0 0.0 0.0 0.0 0.0 0.0 0.1 0.1 2.1 3.2 0.1 0.0 0.0 0.0 0.0 0.0 0.0 0.0 0.0 0.0 0.0 0.0 0.0 0.0 0.0 0.0 0.0 0.0 0.0 0.0 0.0 0.0 0.0 0.0 0.0 0.0 0.0 0.0
0.0 0.0 0.0 0.0 0.0 0.0 0.1 0.0 0.2 0.8 1.7 0.0 0.0 0.0 0.0 0.0 0.0 0.0 0.0 0.0 0.0 0.0 0.0 0.0 0.0 0.0 0.0 0.0 0.0 0.0 0.0 0.0 0.0 0.0 0.0 0.0 0.0 0.0
0.0 0.0 0.0 0.0 0.0 0.1 0.0 0.0 0.1 0.3 1.1 0.0 0.0 0.0 0.0 0.0 0.0 0.0 0.0 0.0 0.0 0.0 0.0 0.0 0.0 0.0 0.0 0.0 0.0 0.0 0.0 0.0 0.0 0.0 0.0 0.0 0.0 0.0
0.1 0.0 0.0 0.0 0.0 0.0 0.0 0.1 0.3 0.1 0.4 0.4 0.0 0.0 0.0 0.0 0.0 0.0 0.0 0.0 0.0 0.0 0.0 0.0 0.0 0.0 0.0 0.0 0.0 0.0 0.0 0.0 0.0 0.0 0.0 0.0 0.0 0.0
0.4 0.3 0.1 0.2 0.2 0.2 0.3 0.4 0.2 0.1 0.1 0.3 0.2 0.0 0.0 0.0 0.0 0.0 0.0 0.0 0.0 0.0 0.0 0.0 0.0 0.0 0.0 0.0 0.0 0.0 0.0 0.0 0.0 0.0 0.0 0.0 0.0 0.0
1.6 1.3 0.9 0.7 0.7 1.5 0.3 0.4 0.2 0.3 0.3 0.2 0.1 0.1 0.0 0.0 0.0 0.0 0.0 0.0 0.0 0.0 0.0 0.0 0.0 0.0 0.0 0.0 0.1 0.1 0.0 0.0 0.0 0.0 0.0 0.0 0.0 0.0
3.9 2.9 3.0 2.8 1.5 2.1 2.9 2.3 0.8 1.1 1.3 0.8 1.6 1.2 0.8 0.7 0.4 0.1 0.7 0.8 0.5 0.2 0.6 0.5 0.2 0.4 0.3 0.1 0.1 0.0 0.0 0.0 0.0 0.0 0.0 0.0 0.0 0.0
4.1 4.7 3.6 3.6 2.5 2.9 2.4 2.6 3.2 2.6 6.3 5.4 3.6 2.8 1.1 1.9 1.8 2.6 3.2 7.5 8.9 0.5 1.8 2.7 1.0 1.4 0.8 0.5 0.3 0.1 0.1 0.3 0.3 0.2 0.2 0.2 0.0 0.0
5.3 4.3 4.0 4.6 4.1 3.2 3.4 3.3 2.8 3.1 4.7 7.9 11.4 6.6 6.2 4.0 4.3 7.6 4.3 3.9 3.6 1.5 2.8 5.6 2.4 2.4 1.2 0.6 0.4 0.4 0.5 0.3 0.1 0.0 0.0 0.4 0.6 0.6
5.8 4.9 4.2 4.3 4.5 4.6 6.0 8.5 9.4 7.8 7.3 7.6 6.2 6.5 3.0 3.1 4.4 4.5 5.1 5.8 5.3 3.2 3.2 10.6 4.5 2.9 1.9 1.0 0.5 0.4 0.5 0.4 0.4 0.3 0.3 0.1 0.1 0.5
1.8 3.7 4.2 3.9 6.5 6.7 11.8 13.3 12.3 9.5 7.6 5.4 5.8 4.8 6.8 5.7 5.9 11.0 12.0 13.7 10.3 5.7 3.4 6.3 2.9 4.4 4.9 4.9 3.7 0.5 0.5 0.2 0.3 0.1 1.1 0.9 0.7 0.5
0.9 1.8 4.1 5.5 5.7 6.7 10.9 12.4 14.6 11.7 10.4 8.6 8.9 8.1 6.5 5.8 6.0 5.6 12.0 16.2 10.5 12.0 3.9 6.4 2.9 5.3 11.1 4.6 4.7 5.3 3.9 2.7 0.4 1.0 0.7 0.9 0.6 1.7
4.2 5.5 4.1 4.5 8.0 5.7 6.0 8.9 11.1 7.3 7.6 8.8 9.1 10.5 10.2 9.3 9.1 8.2 8.0 11.9 19.0 12.8 3.4 7.1 6.6 3.5 8.4 5.0 4.9 5.8 6.7 9.6 5.9 4.6 2.8 3.2 1.4 2.7
10.0 8.7 8.5 8.1 6.4 5.7 5.4 7.7 6.5 5.8 8.1 10.0 10.4 11.1 13.7 13.7 10.1 10.4 8.7 8.7 7.6 10.1 5.5 10.6 18.8 5.8 9.9 10.9 6.3 5.4 9.1 10.3 11.9 9.3 7.7 6.9 5.3 4.3
8.4 9.3 9.2 7.7 6.4 7.4 6.3 6.3 6.6 8.8 9.3 9.5 8.8 7.5 8.1 8.9 8.6 9.6 9.0 8.1 7.6 7.7 9.2 8.0 9.4 8.5 12.6 13.1 5.2 5.4 12.5 13.7 10.0 9.8 11.3 11.6 11.1 8.8
8.6 9.5 10.3 9.2 8.3 8.9 9.1 7.9 8.5 8.2 7.8 8.0 6.6 4.9 4.4 6.0 7.3 7.7 11.5 10.3 14.8 13.8 9.5 11.0 15.0 13.3 17.3 11.3 8.1 9.5 7.3 11.9 9.6 10.2 10.9 11.3 10.1 7.5
11.6 13.2 12.7 9.4 8.7 6.1 4.9 4.0 3.6 3.4 5.0 4.5 4.1 3.3 3.5 3.9 6.5 6.6 8.3 9.0 15.1 14.4 14.2 12.4 12.9 15.7 11.8 10.6 12.7 7.1 7.3 7.5 7.3 8.8 11.5 11.5 9.9 10.3
11.0 9.6 8.4 7.5 7.2 6.7 7.0 6.6 3.6 2.7 2.6 3.1 3.4 2.9 4.6 5.7 6.5 5.7 6.1 12.2 13.5 12.9 15.5 14.0 15.4 19.1 16.8 12.4 6.3 7.4 11.4 10.3 7.9 6.2 7.8 12.3 10.3 8.4
11.1 9.3 8.9 9.8 8.0 7.8 6.7 5.8 5.4 4.2 3.2 4.0 3.1 5.1 4.4 4.4 6.3 6.0 7.1 9.5 11.8 9.0 11.2 14.0 19.3 21.5 27.3 22.9 9.6 3.8 10.4 7.2 7.1 7.8 8.3 9.7 13.5 9.6
11.0 11.3 11.2 9.5 8.5 6.7 6.4 5.7 4.5 4.3 3.9 3.1 3.8 3.1 4.6 5.3 4.1 6.7 7.2 10.5 10.4 9.7 8.1 8.7 14.5 17.4 26.7 26.4 22.6 12.1 8.6 11.4 10.3 10.6 10.4 9.4 11.2 10.6
12.9 11.6 12.8 12.3 10.7 9.7 8.6 7.2 7.8 7.5 7.1 5.5 5.4 6.0 6.2 6.3 6.2 3.9 6.0 6.9 9.0 10.2 10.3 10.4 11.3 14.9 17.1 17.8 24.2 19.9 17.9 11.4 12.3 14.8 13.6 16.8 16.2 11.2
22.7 20.6 19.0 18.9 18.0 16.4 14.8 13.0 10.9 10.3 9.7 7.7 7.3 7.5 8.4 7.8 8.1 8.4 7.8 12.0 11.6 11.3 12.2 10.5 10.2 12.0 15.8 19.6 21.6 17.7 19.7 19.1 12.6 13.2 13.1 12.7 19.6 22.1
23.5 22.1 20.7 18.6 16.8 16.5 15.7 15.5 13.9 13.8 12.6 11.3 10.8 9.8 9.8 11.0 9.4 9.8 9.4 8.3 9.5 9.8 9.5 12.9 12.1 12.2 16.0 17.1 19.8 21.9 19.7 19.6 20.0 16.1 18.5 7.6 6.7 6.2

GFSNE_prec_kuchsnow_228.txt.gz
Snowfall_Accumulation
0.0 0.0 0.0 0.0 0.0 0.0 0.1 0.1 2.1 3.2 0.1 0.0 0.0 0.0 0.0 0.0 0.0 0.0 0.0 0.0 0.0 0.0 0.0 0.0 0.0 0.0 0.0 0.0 0.0 0.0 0.0 0.0 0.0 0.0 0.0 0.0 0.0 0.0
0.0 0.0 0.0 0.0 0.0 0.0 0.1 0.0 0.2 0.8 1.7 0.0 0.0 0.0 0.0 0.0 0.0 0.0 0.0 0.0 0.0 0.0 0.0 0.0 0.0 0.0 0.0 0.0 0.0 0.0 0.0 0.0 0.0 0.0 0.0 0.0 0.0 0.0
0.0 0.0 0.0 0.0 0.0 0.1 0.0 0.0 0.1 0.3 1.1 0.0 0.0 0.0 0.0 0.0 0.0 0.0 0.0 0.0 0.0 0.0 0.0 0.0 0.0 0.0 0.0 0.0 0.0 0.0 0.0 0.0 0.0 0.0 0.0 0.0 0.0 0.0
0.1 0.0 0.0 0.0 0.0 0.0 0.0 0.1 0.3 0.1 0.4 0.4 0.0 0.0 0.0 0.0 0.0 0.0 0.0 0.0 0.0 0.0 0.0 0.0 0.0 0.0 0.0 0.0 0.0 0.0 0.0 0.0 0.0 0.0 0.0 0.0 0.0 0.0
0.4 0.3 0.1 0.2 0.2 0.2 0.3 0.4 0.2 0.1 0.1 0.3 0.2 0.0 0.0 0.0 0.0 0.0 0.0 0.0 0.0 0.0 0.0 0.0 0.0 0.0 0.0 0.0 0.0 0.0 0.0 0.0 0.0 0.0 0.0 0.0 0.0 0.0
1.6 1.3 0.9 0.7 0.7 1.5 0.3 0.4 0.2 0.3 0.3 0.2 0.1 0.1 0.0 0.0 0.0 0.0 0.0 0.0 0.0 0.0 0.0 0.0 0.0 0.0 0.0 0.0 0.1 0.1 0.0 0.0 0.0 0.0 0.0 0.0 0.0 0.0
3.9 2.9 3.0 2.8 1.5 2.1 2.9 2.3 0.8 1.1 1.3 0.8 1.6 1.2 0.8 0.7 0.4 0.1 0.7 0.8 0.5 0.2 0.6 0.5 0.2 0.4 0.3 0.1 0.1 0.0 0.0 0.0 0.0 0.0 0.0 0.1 0.1 0.0
4.1 4.7 3.6 3.6 2.5 2.9 2.4 2.6 3.2 2.6 6.3 5.4 3.6 2.8 1.1 1.9 1.8 2.6 3.2 7.5 10.7 0.5 1.8 2.7 1.0 1.4 0.8 0.5 0.3 0.1 0.1 0.3 0.3 0.2 0.4 0.4 0.0 0.0
5.3 4.3 4.0 4.6 4.1 3.2 3.4 3.3 2.8 3.1 4.7 7.9 11.4 6.6 6.2 4.0 4.3 7.6 4.3 3.9 3.6 1.5 2.8 8.5 4.8 4.2 1.9 0.6 0.4 0.4 0.5 0.3 0.1 0.4 0.3 0.5 0.6 0.6
5.8 4.9 4.2 4.3 4.5 4.6 6.0 8.5 9.4 7.8 7.3 7.6 6.2 6.5 3.0 3.1 4.4 4.5 5.1 6.7 7.1 4.8 4.5 14.1 6.9 5.0 3.0 1.5 0.6 0.5 0.6 0.6 0.7 0.6 0.3 0.1 0.1 0.5
1.8 3.7 4.2 3.9 6.5 6.7 11.8 13.3 12.3 9.5 7.6 5.4 5.8 4.8 6.8 5.7 5.9 11.0 14.4 16.2 13.5 8.4 5.8 8.1 5.2 6.5 6.6 6.4 4.4 0.6 0.7 0.5 0.5 0.2 1.1 1.0 0.7 0.5
0.9 1.8 4.1 5.5 5.7 6.7 10.9 12.4 14.6 11.8 10.6 8.8 9.0 8.1 6.5 5.8 6.0 5.6 12.5 17.4 12.3 14.8 6.1 7.9 4.6 6.8 13.7 6.2 5.6 5.7 4.4 3.1 0.7 1.2 0.8 0.9 0.7 1.8
4.2 5.5 4.1 4.5 8.0 5.7 6.0 8.9 11.3 7.3 8.0 9.0 9.3 10.9 10.8 9.9 9.9 8.9 8.5 12.4 19.9 14.0 4.0 7.9 7.8 4.9 9.1 5.6 5.8 6.6 7.5 10.3 6.3 4.8 2.9 3.2 1.4 2.7
10.0 8.7 8.5 8.1 6.4 5.7 5.4 7.8 6.8 6.3 8.5 10.3 10.7 11.1 14.4 14.5 11.0 11.3 9.5 9.4 8.1 10.6 6.0 10.9 19.4 6.2 10.1 11.6 7.5 6.8 10.4 11.1 12.2 9.4 7.7 6.9 5.3 4.3
8.4 9.3 9.2 7.7 6.4 7.4 6.3 6.5 7.1 9.4 9.9 9.9 9.0 8.0 8.8 9.7 9.4 10.5 10.1 9.1 8.9 9.2 9.8 8.4 9.8 9.0 13.2 13.9 6.1 6.4 13.6 14.5 10.4 9.9 11.3 11.6 11.1 8.8
8.7 9.6 10.4 9.3 8.3 8.9 9.4 7.9 9.2 8.9 8.4 8.4 7.0 5.4 5.0 6.7 8.0 8.3 12.2 11.2 15.5 14.9 10.6 11.9 15.8 13.9 18.2 12.1 8.8 10.3 7.8 12.2 9.7 10.2 10.9 11.3 10.1 7.5
11.9 13.4 12.9 9.5 8.7 6.4 5.3 4.8 4.5 4.2 5.6 4.9 4.4 3.6 3.8 4.3 7.1 7.3 8.8 9.4 15.1 14.9 15.0 13.4 13.8 16.3 12.1 10.9 12.9 7.2 7.4 7.5 7.3 8.8 11.5 11.5 9.9 10.3
11.3 9.8 8.6 7.6 7.5 7.0 7.6 7.6 4.7 3.6 2.9 3.2 3.5 3.0 4.8 5.8 6.8 6.1 6.4 12.4 13.7 13.4 15.8 14.3 15.6 19.2 16.8 12.4 6.3 7.4 11.4 10.3 7.9 6.2 7.8 12.3 10.3 8.4
11.4 9.5 9.2 10.0 8.3 8.3 7.4 6.9 6.6 5.1 3.4 4.0 3.1 5.1 4.4 4.4 6.3 6.1 7.3 9.7 11.9 9.1 11.3 14.0 19.3 21.5 27.3 22.9 9.6 3.8 10.4 7.2 7.1 7.8 8.3 9.7 13.5 9.6
11.1 11.4 11.4 9.9 8.8 7.4 7.3 6.9 5.5 4.9 4.1 3.1 3.8 3.1 4.6 5.3 4.2 6.7 7.2 10.5 10.4 9.7 8.1 8.7 14.5 17.4 26.7 26.4 22.6 12.1 8.6 11.4 10.3 10.6 10.4 9.4 11.2 10.6
13.1 11.9 13.1 12.6 11.3 10.7 9.5 8.4 8.7 8.1 7.3 5.6 5.5 6.0 6.3 6.4 6.2 3.9 6.0 6.9 9.0 10.2 10.3 10.4 11.3 14.9 17.1 17.8 24.2 19.9 17.9 11.4 12.3 14.8 13.6 16.8 16.2 11.2
22.9 20.8 19.2 19.1 18.6 17.3 15.6 13.9 11.8 10.9 10.0 7.8 7.3 7.5 8.4 7.8 8.1 8.4 7.8 12.0 11.6 11.3 12.2 10.5 10.2 12.0 15.8 19.6 21.6 17.7 19.7 19.1 12.6 13.2 13.1 12.7 19.6 22.1
23.5 22.2 20.9 18.8 17.5 17.3 16.4 16.3 14.7 14.3 12.7 11.4 10.8 9.8 9.8 11.0 9.4 9.8 9.4 8.3 9.5 9.8 9.5 12.9 12.1 12.2 16.0 17.1 19.8 21.9 19.7 19.6 20.0 16.1 18.5 7.6 6.7 6.2

GFSNE_prec_kuchsnow_234.txt.gz
Snowfall_Accumulation
0.0 0.0 0.0 0.0 0.0 0.0 0.1 0.1 2.1 3.2 0.1 0.0 0.0 0.0 0.0 0.0 0.0 0.0 0.0 0.0 0.0 0.0 0.0 0.0 0.0 0.0 0.0 0.0 0.0 0.0 0.0 0.0 0.0 0.0 0.0 0.0 0.0 0.0
0.0 0.0 0.0 0.0 0.0 0.0 0.1 0.0 0.2 0.8 1.7 0.0 0.0 0.0 0.0 0.0 0.0 0.0 0.0 0.0 0.0 0.0 0.0 0.0 0.0 0.0 0.0 0.0 0.0 0.0 0.0 0.0 0.0 0.0 0.0 0.0 0.0 0.0
0.0 0.0 0.0 0.0 0.0 0.1 0.0 0.0 0.1 0.3 1.1 0.0 0.0 0.0 0.0 0.0 0.0 0.0 0.0 0.0 0.0 0.0 0.0 0.0 0.0 0.0 0.0 0.0 0.0 0.0 0.0 0.0 0.0 0.0 0.0 0.0 0.0 0.0
0.1 0.0 0.0 0.0 0.0 0.0 0.0 0.1 0.3 0.1 0.4 0.4 0.0 0.0 0.0 0.0 0.0 0.0 0.0 0.0 0.0 0.0 0.0 0.0 0.0 0.0 0.0 0.0 0.0 0.0 0.0 0.0 0.0 0.0 0.0 0.0 0.0 0.0
0.4 0.3 0.1 0.2 0.2 0.2 0.3 0.4 0.2 0.1 0.1 0.3 0.2 0.0 0.0 0.0 0.0 0.0 0.0 0.0 0.0 0.0 0.0 0.0 0.0 0.0 0.0 0.0 0.0 0.0 0.0 0.0 0.0 0.0 0.0 0.0 0.0 0.0
1.6 1.3 0.9 0.7 0.7 1.5 0.3 0.4 0.2 0.3 0.3 0.2 0.1 0.1 0.0 0.0 0.0 0.0 0.0 0.0 0.0 0.0 0.0 0.0 0.0 0.0 0.0 0.0 0.1 0.1 0.0 0.0 0.0 0.0 0.0 0.0 0.0 0.0
3.9 2.9 3.0 2.8 1.5 2.1 2.9 2.3 0.8 1.1 1.3 0.8 1.6 1.2 0.8 0.7 0.4 0.1 0.7 0.8 0.5 0.2 0.6 0.5 0.2 0.4 0.3 0.1 0.1 0.0 0.0 0.0 0.0 0.0 0.0 0.1 0.1 0.0
4.1 4.7 3.6 3.6 2.5 2.9 2.4 2.6 3.2 2.6 6.3 5.4 3.6 2.8 1.1 1.9 1.8 2.6 3.2 7.5 10.7 0.5 1.8 2.7 1.0 1.4 0.8 0.5 0.3 0.1 0.1 0.3 0.3 0.2 0.4 0.4 0.0 0.0
5.3 4.3 4.0 4.6 4.1 3.2 3.4 3.3 2.8 3.1 4.7 7.9 11.4 6.6 6.2 4.0 4.3 7.6 4.3 3.9 3.6 1.5 2.8 8.5 4.8 4.2 1.9 0.6 0.4 0.4 0.5 0.3 0.1 0.4 0.3 0.5 0.6 0.6
5.8 4.9 4.2 4.3 4.5 4.6 6.0 8.5 9.4 7.8 7.3 7.6 6.2 6.5 3.0 3.1 4.4 4.5 5.1 6.7 7.1 6.8 4.5 17.3 10.8 8.1 5.0 1.5 0.6 0.5 0.6 0.6 0.8 0.6 0.3 0.1 0.2 0.6
1.8 3.7 4.2 3.9 6.5 6.7 11.8 13.3 12.3 9.5 7.6 5.4 5.8 4.8 6.8 5.7 5.9 11.0 14.4 17.6 17.0 12.2 9.7 12.3 10.7 11.5 11.7 12.1 6.0 1.5 1.1 0.8 0.6 0.2 1.9 1.1 0.9 0.6
0.9 1.8 4.1 5.5 5.7 6.7 11.0 12.4 14.6 11.8 10.6 8.8 9.0 8.1 6.5 5.8 6.0 5.6 12.8 18.5 14.9 19.2 9.3 11.1 9.0 10.9 22.3 13.4 11.9 11.5 8.2 3.3 0.8 2.5 1.2 1.2 1.0 2.1
4.2 5.5 4.2 4.5 8.0 5.7 6.1 8.9 11.4 7.4 8.1 9.1 9.3 10.9 10.8 9.9 10.4 9.3 8.5 13.2 21.6 16.4 5.2 9.3 10.7 8.5 12.6 10.8 11.1 11.5 11.3 13.3 8.1 5.7 3.3 3.5 1.6 2.9
10.0 8.7 8.5 8.1 6.4 5.7 5.5 7.9 7.0 6.5 8.8 10.8 10.7 11.8 15.0 15.0 12.1 12.9 11.3 10.1 9.1 11.1 7.1 11.6 21.1 7.4 11.3 14.1 11.6 10.6 13.5 13.2 13.2 10.4 8.3 7.2 5.4 4.4
8.4 9.4 9.3 7.8 6.5 7.6 6.6 6.7 7.2 9.8 10.5 10.8 10.0 8.7 10.0 11.3 11.1 11.4 12.1 10.7 10.5 10.8 11.2 9.4 10.6 10.3 14.2 15.3 7.9 8.6 16.1 17.0 11.5 10.5 11.5 11.7 11.2 8.8
8.8 9.8 10.6 9.5 8.6 9.1 9.6 8.0 9.4 9.6 9.3 9.4 7.9 6.8 6.4 8.2 9.4 9.5 13.3 12.3 16.6 17.0 12.5 13.3 16.8 14.7 20.0 13.9 10.1 12.4 9.0 13.4 10.7 10.6 11.1 11.5 10.3 7.5
12.2 13.5 13.0 9.7 8.8 6.5 5.5 5.1 5.4 5.4 6.8 6.8 6.2 5.3 5.2 5.5 8.5 8.7 9.7 9.9 15.7 15.9 16.6 15.3 15.6 17.7 13.4 11.7 14.2 8.3 8.3 8.0 7.7 9.2 11.6 11.7 10.0 10.3
11.6 9.8 8.7 7.8 7.6 7.1 7.9 8.4 6.0 4.8 4.2 5.2 5.4 4.6 6.1 7.1 8.0 7.4 7.6 13.2 14.4 14.4 16.6 15.3 16.4 20.0 17.2 13.6 6.9 8.1 12.1 10.7 8.3 6.3 7.9 12.3 10.3 8.4
11.6 9.6 9.3 10.1 8.4 8.5 7.5 8.1 8.0 6.7 5.1 5.8 4.7 6.5 5.7 5.7 7.4 7.0 8.3 10.5 12.7 9.9 12.1 14.7 19.4 21.5 27.3 23.0 10.2 4.1 10.5 7.3 7.1 7.8 8.3 9.7 13.5 9.6
11.2 11.6 11.6 10.0 8.8 7.4 7.3 7.9 6.6 6.4 5.8 4.6 5.0 4.3 5.6 6.2 5.1 7.2 7.9 10.9 10.7 10.1 8.7 9.3 14.6 17.4 26.7 26.4 22.7 12.4 8.7 11.4 10.3 10.6 10.4 9.4 11.2 10.6
13.2 11.9 13.1 12.7 11.4 10.8 10.0 9.3 9.7 9.3 8.6 6.7 6.5 6.9 7.1 6.9 6.7 4.2 6.3 7.0 9.0 10.2 10.3 10.4 11.3 14.9 17.1 17.8 24.2 19.9 17.9 11.4 12.3 14.8 13.6 16.8 16.2 11.2
22.9 20.8 19.2 19.2 18.8 17.7 16.1 14.5 12.5 11.8 10.9 8.4 8.1 8.2 9.0 8.3 8.3 8.6 7.9 12.0 11.6 11.3 12.2 10.5 10.2 12.0 15.8 19.6 21.6 17.7 19.7 19.1 12.6 13.2 13.1 12.7 19.6 22.1
23.5 22.3 20.9 19.0 17.6 17.6 16.9 16.9 15.3 15.1 13.4 11.9 11.2 10.2 10.2 11.3 9.6 9.9 9.4 8.3 9.5 9.8 9.5 12.9 12.1 12.2 16.0 17.1 19.8 21.9 19.7 19.6 20.0 16.1 18.5 7.6 6.7 6.2